| time (UTC) | temp F | wind direction | speed MPH | gust MPH | rain 1hr in | rain 24hr in | rain mn in | humidity % | barometer mb |
| 20260504041512 | 54 | 146 | 0.0 | 0.0 | 0.00 | 0.00 | 0.00 | 61 | 1019.3 |
| 20260504040012 | 54 | 131 | 0.0 | 0.0 | 0.00 | 0.00 | 0.00 | 60 | 1019.2 |
| 20260504034507 | 55 | 119 | 0.0 | 0.0 | 0.00 | 0.00 | 0.00 | 61 | 1019.3 |
| 20260504033010 | 55 | 148 | 0.0 | 0.0 | 0.00 | 0.00 | 0.00 | 60 | 1019.3 |
| 20260504031504 | 55 | 136 | 0.0 | 0.0 | 0.00 | 0.00 | 0.00 | 57 | 1019.3 |
| 20260504030003 | 56 | 131 | 0.0 | 0.0 | 0.00 | 0.00 | 0.00 | 59 | 1019.3 |
| 20260504024507 | 58 | 98 | 0.0 | 5.0 | 0.00 | 0.00 | 0.00 | 57 | 1019.3 |
| 20260504023010 | 59 | 154 | 4.0 | 7.0 | 0.00 | 0.00 | 0.00 | 52 | 1019.4 |
| 20260504021511 | 60 | 89 | 8.0 | 13.0 | 0.00 | 0.00 | 0.00 | 51 | 1019.5 |
| 20260504020007 | 61 | 123 | 8.0 | 14.0 | 0.00 | 0.00 | 0.00 | 49 | 1019.2 |
| 20260504014506 | 61 | 295 | 11.0 | 20.0 | 0.00 | 0.00 | 0.00 | 48 | 1018.8 |
| 20260504013005 | 61 | 108 | 13.0 | 24.0 | 0.00 | 0.00 | 0.00 | 51 | 1018.4 |
| 20260504011519 | 63 | 37 | 16.0 | 27.0 | 0.00 | 0.00 | 0.00 | 46 | 1018.6 |
| 20260504010012 | 63 | 340 | 17.0 | 23.0 | 0.00 | 0.00 | 0.00 | 45 | 1018.7 |
| 20260504004514 | 64 | 98 | 15.0 | 24.0 | 0.00 | 0.00 | 0.00 | 43 | 1018.8 |
| 20260504003010 | 64 | 66 | 12.0 | 23.0 | 0.00 | 0.00 | 0.00 | 43 | 1018.8 |
| 20260504001506 | 64 | 64 | 16.0 | 21.0 | 0.00 | 0.00 | 0.00 | 42 | 1019.0 |
| 20260504000007 | 65 | 75 | 15.0 | 22.0 | 0.00 | 0.00 | 0.00 | 41 | 1019.0 |
| 20260503234517 | 65 | 127 | 15.0 | 22.0 | 0.00 | 0.00 | 0.00 | 40 | 1019.1 |
| 20260503233017 | 66 | 65 | 13.0 | 25.0 | 0.00 | 0.00 | 0.00 | 38 | 1019.0 |
| 20260503231518 | 67 | 86 | 18.0 | 25.0 | 0.00 | 0.00 | 0.00 | 38 | 1019.0 |
| 20260503230012 | 67 | 48 | 19.0 | 29.0 | 0.00 | 0.01 | 0.00 | 36 | 1019.2 |
| 20260503224512 | 68 | 84 | 15.0 | 22.0 | 0.00 | 0.02 | 0.00 | 35 | 1019.2 |
| 20260503223020 | 67 | 86 | 18.0 | 25.0 | 0.00 | 0.02 | 0.00 | 36 | 1019.4 |
| 20260503221523 | 67 | 90 | 14.0 | 23.0 | 0.00 | 0.02 | 0.00 | 37 | 1019.7 |
| 20260503220026 | 67 | 99 | 18.0 | 25.0 | 0.00 | 0.02 | 0.00 | 38 | 1020.1 |
| 20260503214525 | 67 | 92 | 15.0 | 22.0 | 0.00 | 0.02 | 0.00 | 38 | 1020.4 |
| 20260503213017 | 67 | 58 | 16.0 | 24.0 | 0.00 | 0.02 | 0.00 | 38 | 1020.6 |
| 20260503211514 | 67 | 52 | 17.0 | 24.0 | 0.00 | 0.02 | 0.00 | 37 | 1021.0 |
| 20260503210010 | 66 | 33 | 14.0 | 22.0 | 0.00 | 0.02 | 0.00 | 37 | 1021.1 |
| 20260503204516 | 66 | 92 | 17.0 | 23.0 | 0.00 | 0.02 | 0.00 | 37 | 1021.7 |
| 20260503203005 | 67 | 82 | 16.0 | 24.0 | 0.00 | 0.02 | 0.00 | 36 | 1021.9 |
| 20260503201506 | 67 | 84 | 16.0 | 26.0 | 0.00 | 0.02 | 0.00 | 36 | 1022.0 |
| 20260503200006 | 66 | 60 | 15.0 | 20.0 | 0.00 | 0.02 | 0.00 | 39 | 1022.0 |
| 20260503194514 | 66 | 54 | 13.0 | 23.0 | 0.00 | 0.02 | 0.00 | 40 | 1022.2 |
| 20260503193013 | 65 | 56 | 15.0 | 22.0 | 0.00 | 0.02 | 0.00 | 40 | 1022.5 |
| 20260503191525 | 65 | 20 | 14.0 | 21.0 | 0.00 | 0.02 | 0.00 | 40 | 1022.6 |
| 20260503190007 | 65 | 71 | 8.0 | 20.0 | 0.00 | 0.02 | 0.00 | 42 | 1022.8 |
| 20260503184504 | 64 | 58 | 15.0 | 24.0 | 0.00 | 0.02 | 0.00 | 39 | 1023.0 |
| 20260503183021 | 63 | 56 | 14.0 | 21.0 | 0.00 | 0.02 | 0.00 | 41 | 1023.1 |
| 20260503181518 | 62 | 41 | 11.0 | 21.0 | 0.00 | 0.02 | 0.00 | 45 | 1023.5 |
| 20260503180014 | 61 | 89 | 8.0 | 17.0 | 0.00 | 0.02 | 0.00 | 48 | 1023.8 |
| 20260503174513 | 60 | 54 | 11.0 | 19.0 | 0.00 | 0.02 | 0.00 | 51 | 1024.2 |
| 20260503173007 | 60 | 338 | 13.0 | 18.0 | 0.00 | 0.02 | 0.00 | 49 | 1024.2 |
| 20260503171504 | 59 | 28 | 8.0 | 14.0 | 0.00 | 0.02 | 0.00 | 55 | 1024.2 |
| 20260503081524 | 40 | 101 | 8.0 | 10.0 | 0.00 | 0.02 | 0.00 | 84 | 1024.8 |
| 20260503071524 | 42 | 85 | 8.0 | 10.0 | 0.00 | 0.02 | 0.00 | 82 | 1025.2 |
| 20260503054512 | 41 | 77 | 10.0 | 15.0 | 0.00 | 0.02 | 0.02 | 85 | 1025.0 |
| 20260503053006 | 40 | 262 | 12.0 | 14.0 | 0.00 | 0.02 | 0.02 | 89 | 1025.2 |
| 20260503051507 | 40 | 264 | 7.0 | 11.0 | 0.00 | 0.02 | 0.02 | 87 | 1025.3 |
| 20260503050003 | 42 | 245 | 11.0 | 14.0 | 0.00 | 0.02 | 0.02 | 84 | 1025.3 |
| 20260503044519 | 43 | 252 | 11.0 | 14.0 | 0.00 | 0.02 | 0.02 | 85 | 1025.5 |
| 20260503043033 | 43 | 28 | 10.0 | 14.0 | 0.00 | 0.02 | 0.02 | 85 | 1025.6 |